Meteo pe oră la Abeche

Astăzi, 5 August, Joi

Timp Temperatura Precipitaţii Vânt Presiune Umiditate
00:00 +29°C° 0 mm 2 m/s 712 mmHg 64%
01:00 +29°C° 0 mm 2 m/s 712 mmHg 66%
02:00 +28°C° 0 mm 2 m/s 712 mmHg 68%
03:00 +28°C° 0 mm 2 m/s 712 mmHg 70%
04:00 +28°C° 0 mm 2 m/s 712 mmHg 72%
05:00 +28°C° 0 mm 3 m/s 712 mmHg 72%
06:00 +28°C° 0 mm 3 m/s 713 mmHg 71%
07:00 +29°C° 0 mm 3 m/s 713 mmHg 71%
08:00 +30°C° 0 mm 4 m/s 713 mmHg 66%
09:00 +32°C° 0 mm 5 m/s 713 mmHg 61%
10:00 +33°C° 0 mm 5 m/s 714 mmHg 57%
11:00 +34°C° 0 mm 5 m/s 713 mmHg 54%
12:00 +35°C° 0 mm 4 m/s 713 mmHg 50%
13:00 +36°C° 0 mm 4 m/s 713 mmHg 47%
14:00 +36°C° 0 mm 4 m/s 712 mmHg 45%
15:00 +36°C° 0 mm 4 m/s 712 mmHg 43%
16:00 +36°C° 0 mm 3 m/s 711 mmHg 41%
17:00 +36°C° 0 mm 3 m/s 711 mmHg 44%
18:00 +35°C° 0 mm 2 m/s 711 mmHg 47%
19:00 +34°C° 0 mm 2 m/s 711 mmHg 50%
20:00 +31°C° 0.5 mm 3 m/s 711 mmHg 57%
21:00 +29°C° 0.5 mm 4 m/s 712 mmHg 64%
22:00 +28°C° 0.5 mm 5 m/s 712 mmHg 71%
23:00 +28°C° 0.3 mm 4 m/s 712 mmHg 72%

Mâine, 6 August, Vineri

Timp Temperatura Precipitaţii Vânt Presiune Umiditate
00:00 +28°C° 0.3 mm 3 m/s 711 mmHg 73%
01:00 +28°C° 0.3 mm 2 m/s 711 mmHg 74%
02:00 +27°C° 1.4 mm 2 m/s 711 mmHg 75%
03:00 +27°C° 1.4 mm 3 m/s 711 mmHg 77%
04:00 +26°C° 1.4 mm 3 m/s 711 mmHg 78%
05:00 +26°C° 0.2 mm 3 m/s 711 mmHg 78%
06:00 +27°C° 0.2 mm 4 m/s 712 mmHg 78%
07:00 +27°C° 0.2 mm 4 m/s 712 mmHg 78%
08:00 +27°C° 0 mm 3 m/s 712 mmHg 76%
09:00 +28°C° 0 mm 3 m/s 712 mmHg 73%
10:00 +28°C° 0 mm 2 m/s 712 mmHg 71%
11:00 +30°C° 0 mm 3 m/s 712 mmHg 65%
12:00 +31°C° 0 mm 3 m/s 711 mmHg 59%
13:00 +33°C° 0 mm 3 m/s 711 mmHg 54%
14:00 +33°C° 0 mm 4 m/s 711 mmHg 51%
15:00 +34°C° 0 mm 4 m/s 710 mmHg 49%
16:00 +34°C° 0 mm 5 m/s 710 mmHg 47%
17:00 +33°C° 0 mm 4 m/s 710 mmHg 52%
18:00 +30°C° 0 mm 4 m/s 710 mmHg 57%
19:00 +29°C° 0 mm 4 m/s 710 mmHg 63%
20:00 +28°C° 1 mm 3 m/s 710 mmHg 67%
21:00 +28°C° 1 mm 3 m/s 711 mmHg 71%
22:00 +27°C° 1 mm 3 m/s 711 mmHg 76%
23:00 +26°C° 1.2 mm 4 m/s 711 mmHg 80%

Poimâine, 7 August, Sâmbătă

Timp Temperatura Precipitaţii Vânt Presiune Umiditate
00:00 +26°C° 1.2 mm 5 m/s 711 mmHg 84%
01:00 +24°C° 1.2 mm 6 m/s 711 mmHg 88%
02:00 +25°C° 1 mm 5 m/s 711 mmHg 88%
03:00 +25°C° 1 mm 4 m/s 711 mmHg 87%
04:00 +25°C° 1 mm 3 m/s 711 mmHg 86%
05:00 +25°C° 0.1 mm 3 m/s 711 mmHg 86%
06:00 +25°C° 0.1 mm 3 m/s 711 mmHg 85%
07:00 +25°C° 0.1 mm 4 m/s 711 mmHg 84%
08:00 +27°C° 0 mm 4 m/s 711 mmHg 74%
09:00 +29°C° 0 mm 4 m/s 711 mmHg 65%
10:00 +30°C° 0 mm 4 m/s 711 mmHg 56%
11:00 +32°C° 0 mm 5 m/s 711 mmHg 56%
12:00 +32°C° 0 mm 6 m/s 710 mmHg 56%
13:00 +32°C° 0 mm 6 m/s 710 mmHg 56%
14:00 +32°C° 0 mm 5 m/s 710 mmHg 55%
15:00 +33°C° 0 mm 4 m/s 710 mmHg 54%
16:00 +33°C° 0 mm 3 m/s 710 mmHg 53%
17:00 +31°C° 0 mm 3 m/s 710 mmHg 57%
18:00 +30°C° 0 mm 3 m/s 710 mmHg 61%
19:00 +30°C° 0 mm 2 m/s 711 mmHg 65%
20:00 +29°C° 0.1 mm 3 m/s 711 mmHg 68%
21:00 +28°C° 0.1 mm 4 m/s 711 mmHg 71%
22:00 +28°C° 0.1 mm 4 m/s 712 mmHg 74%
23:00 +27°C° 0.2 mm 5 m/s 712 mmHg 76%

8 August, Duminică

Timp Temperatura Precipitaţii Vânt Presiune Umiditate
00:00 +27°C° 0.2 mm 5 m/s 711 mmHg 78%
01:00 +26°C° 0.2 mm 5 m/s 711 mmHg 80%
02:00 +26°C° 0 mm 5 m/s 711 mmHg 82%
03:00 +26°C° 0 mm 5 m/s 711 mmHg 84%
04:00 +25°C° 0 mm 5 m/s 711 mmHg 86%
05:00 +25°C° 0 mm 5 m/s 712 mmHg 85%
06:00 +25°C° 0 mm 4 m/s 712 mmHg 84%
07:00 +26°C° 0 mm 4 m/s 713 mmHg 83%
08:00 +26°C° 0 mm 4 m/s 713 mmHg 81%
09:00 +27°C° 0 mm 4 m/s 713 mmHg 79%
10:00 +27°C° 0 mm 5 m/s 713 mmHg 77%
11:00 +27°C° 0 mm 5 m/s 713 mmHg 74%
12:00 +28°C° 0 mm 4 m/s 713 mmHg 72%
13:00 +28°C° 0 mm 4 m/s 713 mmHg 69%
14:00 +28°C° 0 mm 4 m/s 712 mmHg 69%
15:00 +28°C° 0 mm 3 m/s 712 mmHg 68%
16:00 +29°C° 0 mm 2 m/s 712 mmHg 67%
17:00 +28°C° 0 mm 2 m/s 712 mmHg 69%
18:00 +28°C° 0 mm 1 m/s 712 mmHg 72%
19:00 +26°C° 0 mm 0 m/s 712 mmHg 74%
20:00 +25°C° 0.1 mm 0 m/s 713 mmHg 74%
21:00 +25°C° 0.1 mm 0 m/s 713 mmHg 75%
22:00 +25°C° 0.1 mm 0 m/s 713 mmHg 76%
23:00 +25°C° 0.4 mm 0 m/s 713 mmHg 76%

9 August, Luni

Timp Temperatura Precipitaţii Vânt Presiune Umiditate
00:00 +25°C° 0.4 mm 0 m/s 713 mmHg 77%
01:00 +25°C° 0.4 mm 0 m/s 713 mmHg 78%
02:00 +26°C° 0.6 mm 1 m/s 712 mmHg 80%
03:00 +26°C° 0.6 mm 2 m/s 712 mmHg 83%
04:00 +25°C° 0.6 mm 2 m/s 712 mmHg 86%
05:00 +25°C° 1.5 mm 3 m/s 713 mmHg 87%
06:00 +25°C° 1.5 mm 3 m/s 713 mmHg 88%
07:00 +24°C° 1.5 mm 3 m/s 714 mmHg 89%
08:00 +24°C° 3.1 mm 3 m/s 714 mmHg 89%
09:00 +24°C° 3.1 mm 3 m/s 714 mmHg 90%
10:00 +24°C° 3.1 mm 3 m/s 714 mmHg 90%
11:00 +25°C° 0 mm 3 m/s 714 mmHg 84%
12:00 +26°C° 0 mm 3 m/s 713 mmHg 77%
13:00 +27°C° 0 mm 3 m/s 713 mmHg 71%
14:00 +28°C° 0 mm 4 m/s 712 mmHg 69%
15:00 +28°C° 0 mm 4 m/s 712 mmHg 68%
16:00 +28°C° 0 mm 4 m/s 712 mmHg 67%
17:00 +28°C° 0 mm 4 m/s 712 mmHg 72%
18:00 +27°C° 0 mm 4 m/s 712 mmHg 76%
19:00 +26°C° 0 mm 3 m/s 712 mmHg 81%
20:00 +26°C° 0 mm 3 m/s 712 mmHg 83%
21:00 +25°C° 0 mm 2 m/s 712 mmHg 85%
22:00 +25°C° 0 mm 1 m/s 712 mmHg 87%
23:00 +25°C° 0 mm 1 m/s 712 mmHg 88%

10 August, Marţi

Timp Temperatura Precipitaţii Vânt Presiune Umiditate
00:00 +25°C° 0 mm 1 m/s 712 mmHg 88%
01:00 +24°C° 0 mm 1 m/s 711 mmHg 88%
02:00 +24°C° 0 mm 1 m/s 711 mmHg 88%
03:00 +24°C° 0 mm 1 m/s 711 mmHg 89%
04:00 +24°C° 0 mm 2 m/s 711 mmHg 89%
05:00 +24°C° 0 mm 2 m/s 711 mmHg 86%
06:00 +25°C° 0 mm 2 m/s 712 mmHg 83%
07:00 +25°C° 0 mm 2 m/s 712 mmHg 80%
08:00 +26°C° 0 mm 2 m/s 712 mmHg 74%
09:00 +27°C° 0 mm 2 m/s 713 mmHg 69%
10:00 +28°C° 0 mm 2 m/s 713 mmHg 64%
11:00 +29°C° 0 mm 3 m/s 712 mmHg 60%
12:00 +29°C° 0 mm 3 m/s 712 mmHg 57%
13:00 +30°C° 0 mm 3 m/s 711 mmHg 54%
14:00 +31°C° 0 mm 3 m/s 711 mmHg 53%
15:00 +31°C° 0 mm 3 m/s 710 mmHg 52%
16:00 +31°C° 0 mm 3 m/s 710 mmHg 51%
17:00 +30°C° 0 mm 2 m/s 710 mmHg 55%
18:00 +30°C° 0 mm 1 m/s 710 mmHg 58%
19:00 +29°C° 0 mm 1 m/s 710 mmHg 62%
20:00 +29°C° 0 mm 1 m/s 710 mmHg 62%
21:00 +29°C° 0 mm 1 m/s 711 mmHg 63%
22:00 +28°C° 0 mm 2 m/s 711 mmHg 63%
23:00 +28°C° 0 mm 1 m/s 711 mmHg 64%
Arată mai mult

Formular de consimțământ

Meteoprog și furnizorii noștri de servicii pot stoca și accesa date personale, precum cookies, identificatori de dispozitiv sau alte tehnologii similare pe dispozitivul dumneavoastră și procesa astfel de date pentru a personaliza conținutul și reclamele, dar și pentru a oferi caracteristici de social media și pentru a analiza traficul.

  • Stocarea și/sau accesarea informațiilor pe dispozitivul dumneavoastră

    Cookies, identificatori de dispozitiv sau alte informații pot fi stocate sau accesate pe dispozitiv în scopurile indicate mai sus.

  • Reclame și conținut personalizat, evaluarea reclamelor și a conținutului, informații despre audiențe și dezvoltarea produselor

    Reclamele și conținutul pot fi personalizate pe baza unui profil. Pot fi adăugate date suplimentare pentru a personaliza mai bine reclamele și conținutul. Performanța reclamelor și conținutului poate fi măsurată. Pot fi obținute informații despre utilizatorii care au văzut reclamele și conținutul. Aceste date pot fi utilizate pentru a dezvolta sau îmbunătăți experiența utilizatorilor, sistemele și software-ul.

Dând clic pe ‘Sunt de acord’, permiteți utilizarea cookie-urilor menționate, a identificatorilor de dispozitiv, balizelor web sau altor tehnologii similare. Setările pot fi modificate din browser-ul dispozitivului dumneavoastră.

În anumite scopuri, interesele legitime pot prima asupra consimțământului. Puteți citi mai multe informații în acest sens în Politica privind Confidențialitatea Datelor și Cookie.